DETSM EDAZ-EDDV

Flight info

Callsign DETSM
Flight time 0h 53m
Altitude 6000
Route DCT LULUL IFR Z20 MAG T804 HLZ HLZ7P
Aircraft S22T/L-SDGRY/S

Departure

Time 2026-04-22 18:26
Airport Schönhagen Airfield (EDAZ)

Arrival

Time 2026-04-22 19:19
Airport Hannover Airport (EDDV)
Time Latitude Longitude Altitude Speed Heading
2026-04-22 18:12 52.20426 13.15074 139 ft 0 kts 165°
2026-04-22 18:17 52.20405 13.15084 139 ft 8 kts 165°
2026-04-22 18:17 52.20345 13.15150 137 ft 15 kts 158°
2026-04-22 18:18 52.20365 13.15311 139 ft 8 kts 72°
2026-04-22 18:18 52.20366 13.15315 139 ft 0 kts 72°
2026-04-22 18:18 52.20369 13.15340 139 ft 6 kts 78°
2026-04-22 18:19 52.20387 13.15459 139 ft 15 kts 76°
2026-04-22 18:19 52.20416 13.15653 134 ft 19 kts 76°
2026-04-22 18:19 52.20447 13.15857 136 ft 18 kts 76°
2026-04-22 18:19 52.20482 13.16072 137 ft 21 kts 73°
2026-04-22 18:20 52.20514 13.16279 137 ft 12 kts 78°
2026-04-22 18:20 52.20539 13.16442 138 ft 17 kts 75°
2026-04-22 18:20 52.20569 13.16624 144 ft 15 kts 70°
2026-04-22 18:20 52.20587 13.16753 148 ft 10 kts 74°
2026-04-22 18:21 52.20607 13.16877 150 ft 8 kts 75°
2026-04-22 18:21 52.20615 13.16934 152 ft 0 kts 79°
2026-04-22 18:21 52.20615 13.16935 152 ft 0 kts 78°
2026-04-22 18:22 52.20615 13.16938 152 ft 3 kts 78°
2026-04-22 18:23 52.20604 13.16999 153 ft 1 kts 124°
2026-04-22 18:23 52.20596 13.17017 154 ft 5 kts 123°
2026-04-22 18:23 52.20567 13.17079 156 ft 8 kts 179°
2026-04-22 18:24 52.20546 13.17012 153 ft 1 kts 251°
2026-04-22 18:24 52.20546 13.17010 153 ft 0 kts 251°
2026-04-22 18:24 52.20490 13.16658 140 ft 66 kts 257°
2026-04-22 18:25 52.20356 13.15759 210 ft 86 kts 257°
2026-04-22 18:25 52.20250 13.14818 422 ft 84 kts 260°
2026-04-22 18:25 52.20152 13.13876 610 ft 86 kts 260°
2026-04-22 18:26 52.19331 13.12612 787 ft 109 kts 167°
2026-04-22 18:26 52.18659 13.12968 776 ft 96 kts 161°
2026-04-22 18:26 52.18159 13.13604 727 ft 90 kts 129°
2026-04-22 18:26 52.17722 13.14259 685 ft 82 kts 148°
2026-04-22 18:27 52.17205 13.14875 771 ft 100 kts 144°
2026-04-22 18:27 52.16623 13.15552 968 ft 105 kts 145°
2026-04-22 18:27 52.16014 13.16245 1186 ft 108 kts 145°
2026-04-22 18:27 52.15393 13.16943 1413 ft 109 kts 146°
2026-04-22 18:28 52.14761 13.17647 1631 ft 111 kts 146°
2026-04-22 18:28 52.14098 13.18377 1731 ft 123 kts 146°
2026-04-22 18:28 52.13347 13.19195 1732 ft 136 kts 146°
2026-04-22 18:28 52.12543 13.20070 1796 ft 139 kts 147°
2026-04-22 18:29 52.11726 13.20905 1893 ft 139 kts 158°
2026-04-22 18:29 52.10780 13.20822 1934 ft 141 kts 201°
2026-04-22 18:29 52.09849 13.20235 1960 ft 144 kts 201°
2026-04-22 18:29 52.08898 13.19657 1974 ft 147 kts 200°
2026-04-22 18:30 52.07932 13.19090 1998 ft 148 kts 200°
2026-04-22 18:30 52.06978 13.16486 2025 ft 148 kts 269°
2026-04-22 18:30 52.06960 13.14813 2039 ft 148 kts 268°
2026-04-22 18:31 52.06938 13.13135 2057 ft 148 kts 268°
2026-04-22 18:31 52.06916 13.11459 2075 ft 148 kts 268°
2026-04-22 18:31 52.06894 13.09783 2095 ft 148 kts 268°
2026-04-22 18:31 52.06891 13.08105 2104 ft 149 kts 277°
2026-04-22 18:32 52.07402 13.06677 2117 ft 149 kts 315°
2026-04-22 18:32 52.08287 13.05809 2134 ft 150 kts 335°
2026-04-22 18:32 52.09061 13.04741 2145 ft 151 kts 294°
2026-04-22 18:32 52.09275 13.03056 2279 ft 156 kts 278°
2026-04-22 18:33 52.09430 13.01304 2432 ft 157 kts 269°
2026-04-22 18:33 52.08967 12.99742 2582 ft 159 kts 220°
2026-04-22 18:33 52.07923 12.99221 2739 ft 160 kts 183°
2026-04-22 18:33 52.06811 12.99263 2891 ft 161 kts 165°
2026-04-22 18:34 52.05960 13.00397 3021 ft 165 kts 117°
2026-04-22 18:34 52.05868 13.02252 3027 ft 172 kts 73°
2026-04-22 18:34 52.06409 13.03993 3032 ft 175 kts 48°
2026-04-22 18:34 52.07466 13.04944 3036 ft 176 kts 16°
2026-04-22 18:35 52.08672 13.04953 3031 ft 177 kts 339°
2026-04-22 18:35 52.09693 13.03856 3034 ft 177 kts 320°
2026-04-22 18:35 52.10655 13.02608 3035 ft 177 kts 321°
2026-04-22 18:35 52.11638 13.01398 3033 ft 177 kts 322°
2026-04-22 18:36 52.12628 13.00194 3034 ft 178 kts 322°
2026-04-22 18:36 52.13616 12.98991 3033 ft 178 kts 322°
2026-04-22 18:36 52.14606 12.97784 3034 ft 178 kts 322°
2026-04-22 18:36 52.15508 12.96429 3032 ft 177 kts 304°
2026-04-22 18:37 52.15989 12.94593 3032 ft 177 kts 282°
2026-04-22 18:37 52.15981 12.92602 3032 ft 177 kts 258°
2026-04-22 18:37 52.15790 12.91314 3033 ft 177 kts 256°
2026-04-22 18:37 52.15477 12.88690 3025 ft 177 kts 269°
2026-04-22 18:38 52.15715 12.86757 3157 ft 169 kts 285°
2026-04-22 18:38 52.15991 12.84943 3400 ft 161 kts 281°
2026-04-22 18:38 52.16196 12.83179 3640 ft 157 kts 279°
2026-04-22 18:39 52.16591 12.79531 3724 ft 171 kts 279°
2026-04-22 18:39 52.16789 12.77598 3727 ft 174 kts 278°
2026-04-22 18:39 52.16979 12.75634 3743 ft 175 kts 278°
2026-04-22 18:39 52.17168 12.73679 3801 ft 174 kts 279°
2026-04-22 18:40 52.17411 12.71720 3658 ft 183 kts 283°
2026-04-22 18:40 52.17695 12.69857 4144 ft 155 kts 285°
2026-04-22 18:40 52.17996 12.68098 4127 ft 168 kts 284°
2026-04-22 18:40 52.18274 12.66313 4434 ft 158 kts 283°
2026-04-22 18:41 52.18490 12.64593 4728 ft 153 kts 277°
2026-04-22 18:41 52.18623 12.62893 4999 ft 152 kts 278°
2026-04-22 18:41 52.18794 12.61136 5160 ft 155 kts 279°
2026-04-22 18:41 52.18977 12.59382 5288 ft 163 kts 279°
2026-04-22 18:42 52.19167 12.57569 5524 ft 158 kts 279°
2026-04-22 18:42 52.19350 12.55812 5720 ft 161 kts 279°
2026-04-22 18:42 52.19546 12.53952 5726 ft 171 kts 279°
2026-04-22 18:42 52.19744 12.52100 5726 ft 163 kts 280°
2026-04-22 18:43 52.19935 12.50309 5721 ft 155 kts 279°
2026-04-22 18:43 52.20112 12.48601 5716 ft 151 kts 279°
2026-04-22 18:43 52.20280 12.46918 5710 ft 149 kts 278°
2026-04-22 18:43 52.20439 12.45235 5709 ft 156 kts 277°
2026-04-22 18:44 52.20586 12.43405 5722 ft 168 kts 276°
2026-04-22 18:44 52.20774 12.41486 5733 ft 175 kts 282°
2026-04-22 18:44 52.21024 12.39553 5731 ft 179 kts 280°
2026-04-22 18:44 52.21238 12.37578 5849 ft 175 kts 279°
2026-04-22 18:45 52.21438 12.35630 5974 ft 173 kts 279°
2026-04-22 18:45 52.21637 12.33672 5995 ft 177 kts 279°
2026-04-22 18:45 52.21842 12.31671 5998 ft 180 kts 279°
2026-04-22 18:45 52.22048 12.29649 6000 ft 182 kts 279°
2026-04-22 18:46 52.22256 12.27613 6003 ft 182 kts 279°
2026-04-22 18:46 52.22464 12.25566 6004 ft 183 kts 279°
2026-04-22 18:46 52.22672 12.23519 6006 ft 183 kts 279°
2026-04-22 18:46 52.22879 12.21467 6006 ft 183 kts 279°
2026-04-22 18:47 52.23086 12.19412 6007 ft 184 kts 279°
2026-04-22 18:47 52.23294 12.17358 6007 ft 184 kts 279°
2026-04-22 18:47 52.23500 12.15303 6005 ft 184 kts 279°
2026-04-22 18:47 52.23707 12.13247 6007 ft 184 kts 279°
2026-04-22 18:48 52.23913 12.11193 6007 ft 184 kts 279°
2026-04-22 18:48 52.24119 12.09135 6005 ft 184 kts 279°
2026-04-22 18:48 52.24324 12.07081 6006 ft 184 kts 279°
2026-04-22 18:48 52.24529 12.05025 6007 ft 184 kts 279°
2026-04-22 18:49 52.24734 12.02967 6007 ft 184 kts 279°
2026-04-22 18:49 52.24938 12.00907 6006 ft 184 kts 279°
2026-04-22 18:49 52.25142 11.98852 6004 ft 184 kts 279°
2026-04-22 18:49 52.25345 11.96796 6004 ft 184 kts 279°
2026-04-22 18:50 52.25550 11.94738 6006 ft 184 kts 278°
2026-04-22 18:50 52.25751 11.92683 6006 ft 184 kts 279°
2026-04-22 18:50 52.25954 11.90625 6006 ft 184 kts 278°
2026-04-22 18:50 52.26156 11.88566 6006 ft 184 kts 278°
2026-04-22 18:51 52.26358 11.86504 6006 ft 184 kts 278°
2026-04-22 18:51 52.26560 11.84447 6006 ft 184 kts 278°
2026-04-22 18:51 52.26761 11.82388 6006 ft 184 kts 278°
2026-04-22 18:51 52.26963 11.80328 6006 ft 184 kts 278°
2026-04-22 18:52 52.27162 11.78272 6006 ft 184 kts 278°
2026-04-22 18:52 52.27358 11.76208 6002 ft 184 kts 278°
2026-04-22 18:52 52.27543 11.74146 6006 ft 184 kts 278°
2026-04-22 18:52 52.27717 11.72082 6006 ft 183 kts 277°
2026-04-22 18:53 52.27881 11.70017 6006 ft 184 kts 277°
2026-04-22 18:53 52.28033 11.67948 6006 ft 184 kts 276°
2026-04-22 18:53 52.28173 11.65878 6006 ft 184 kts 276°
2026-04-22 18:53 52.28302 11.63809 6006 ft 184 kts 275°
2026-04-22 18:54 52.28420 11.61725 6006 ft 184 kts 275°
2026-04-22 18:54 52.28524 11.59648 6005 ft 184 kts 274°
2026-04-22 18:54 52.28587 11.58270 6006 ft 184 kts 274°
2026-04-22 18:54 52.28696 11.55514 6006 ft 184 kts 273°
2026-04-22 18:55 52.28765 11.53434 6006 ft 184 kts 272°
2026-04-22 18:55 52.28823 11.51351 6006 ft 184 kts 272°
2026-04-22 18:55 52.28868 11.49268 6006 ft 184 kts 271°
2026-04-22 18:55 52.28903 11.47185 6006 ft 184 kts 271°
2026-04-22 18:56 52.28919 11.45778 6006 ft 184 kts 270°
2026-04-22 18:56 52.28933 11.43690 6006 ft 184 kts 270°
2026-04-22 18:56 52.28935 11.41607 6006 ft 184 kts 269°
2026-04-22 18:56 52.28924 11.39522 6006 ft 183 kts 269°
2026-04-22 18:57 52.28901 11.37466 6006 ft 183 kts 268°
2026-04-22 18:57 52.28867 11.35384 6007 ft 184 kts 268°
2026-04-22 18:57 52.28866 11.33304 5998 ft 184 kts 278°
2026-04-22 18:57 52.29361 11.31388 5993 ft 184 kts 297°
2026-04-22 18:58 52.29790 11.29402 5995 ft 183 kts 282°
2026-04-22 18:58 52.30034 11.27358 5997 ft 183 kts 280°
2026-04-22 18:58 52.30274 11.25312 5997 ft 183 kts 281°
2026-04-22 18:58 52.30524 11.23268 5997 ft 183 kts 281°
2026-04-22 18:59 52.30776 11.21225 5997 ft 183 kts 281°
2026-04-22 18:59 52.31028 11.19183 5997 ft 183 kts 281°
2026-04-22 18:59 52.31279 11.17140 5996 ft 183 kts 281°
2026-04-22 18:59 52.31529 11.15093 5997 ft 184 kts 281°
2026-04-22 19:00 52.31776 11.13076 5997 ft 184 kts 281°
2026-04-22 19:00 52.32029 11.11002 5997 ft 184 kts 281°
2026-04-22 19:00 52.32265 11.08955 5997 ft 184 kts 280°
2026-04-22 19:00 52.32486 11.06928 5996 ft 184 kts 279°
2026-04-22 19:01 52.32713 11.04875 5997 ft 184 kts 280°
2026-04-22 19:01 52.32942 11.02820 5997 ft 183 kts 280°
2026-04-22 19:01 52.33174 11.00770 5997 ft 184 kts 280°
2026-04-22 19:01 52.33405 10.98719 5997 ft 184 kts 280°
2026-04-22 19:02 52.33632 10.96665 5997 ft 184 kts 280°
2026-04-22 19:02 52.33862 10.94613 5997 ft 183 kts 280°
2026-04-22 19:02 52.34092 10.92560 5997 ft 184 kts 280°
2026-04-22 19:02 52.34318 10.90508 5996 ft 184 kts 280°
2026-04-22 19:03 52.34549 10.88455 5996 ft 183 kts 280°
2026-04-22 19:03 52.34781 10.86402 5996 ft 184 kts 280°
2026-04-22 19:03 52.35011 10.84351 5996 ft 184 kts 280°
2026-04-22 19:03 52.35242 10.82299 5996 ft 184 kts 280°
2026-04-22 19:04 52.35472 10.80245 5996 ft 183 kts 280°
2026-04-22 19:04 52.35702 10.78192 5996 ft 183 kts 280°
2026-04-22 19:04 52.35930 10.76142 5996 ft 183 kts 280°
2026-04-22 19:04 52.36163 10.74089 5995 ft 184 kts 281°
2026-04-22 19:05 52.36417 10.72042 5994 ft 184 kts 281°
2026-04-22 19:05 52.36670 10.69994 5995 ft 184 kts 281°
2026-04-22 19:05 52.36922 10.67948 5994 ft 184 kts 281°
2026-04-22 19:05 52.37172 10.65900 5995 ft 183 kts 281°
2026-04-22 19:06 52.37423 10.63852 5994 ft 183 kts 281°
2026-04-22 19:06 52.37673 10.61805 5994 ft 183 kts 281°
2026-04-22 19:06 52.37923 10.59758 5994 ft 183 kts 281°
2026-04-22 19:07 52.38422 10.55663 5994 ft 183 kts 281°
2026-04-22 19:07 52.38671 10.53615 5994 ft 183 kts 281°
2026-04-22 19:07 52.38919 10.51566 5994 ft 183 kts 281°
2026-04-22 19:07 52.39168 10.49517 5994 ft 183 kts 281°
2026-04-22 19:08 52.39415 10.47466 5993 ft 183 kts 281°
2026-04-22 19:08 52.39663 10.45419 5993 ft 183 kts 281°
2026-04-22 19:08 52.39909 10.43369 5993 ft 183 kts 281°
2026-04-22 19:08 52.40157 10.41321 5993 ft 183 kts 281°
2026-04-22 19:09 52.40399 10.39297 5993 ft 183 kts 281°
2026-04-22 19:09 52.40646 10.37242 5993 ft 184 kts 281°
2026-04-22 19:09 52.40893 10.35170 5993 ft 183 kts 281°
2026-04-22 19:09 52.41136 10.33145 5993 ft 183 kts 281°
2026-04-22 19:10 52.41380 10.31095 5993 ft 183 kts 281°
2026-04-22 19:10 52.41626 10.29044 5992 ft 183 kts 281°
2026-04-22 19:10 52.41870 10.26990 5955 ft 185 kts 281°
2026-04-22 19:10 52.42118 10.24899 5901 ft 186 kts 281°
2026-04-22 19:11 52.42370 10.22857 5676 ft 178 kts 282°
2026-04-22 19:11 52.42611 10.20884 5303 ft 175 kts 281°
2026-04-22 19:11 52.42840 10.18933 4927 ft 174 kts 281°
2026-04-22 19:11 52.43066 10.16996 4555 ft 172 kts 281°
2026-04-22 19:12 52.43292 10.15071 4175 ft 172 kts 281°
2026-04-22 19:12 52.43517 10.13151 3802 ft 171 kts 281°
2026-04-22 19:12 52.43741 10.11238 3427 ft 171 kts 281°
2026-04-22 19:12 52.43965 10.09327 3073 ft 170 kts 281°
2026-04-22 19:13 52.44177 10.07509 2935 ft 159 kts 281°
2026-04-22 19:13 52.44381 10.05713 2656 ft 160 kts 278°
2026-04-22 19:13 52.44441 10.03975 2638 ft 148 kts 271°
2026-04-22 19:13 52.44481 10.02278 2636 ft 150 kts 272°
2026-04-22 19:14 52.44530 10.00562 2638 ft 151 kts 272°
2026-04-22 19:14 52.44562 9.98833 2638 ft 152 kts 271°
2026-04-22 19:14 52.44579 9.97098 2636 ft 152 kts 270°
2026-04-22 19:14 52.44582 9.95359 2635 ft 153 kts 269°
2026-04-22 19:15 52.44577 9.94207 2634 ft 153 kts 269°
2026-04-22 19:15 52.44550 9.91881 2633 ft 153 kts 266°
2026-04-22 19:15 52.44677 9.90164 2646 ft 152 kts 282°
2026-04-22 19:15 52.44892 9.88491 2541 ft 150 kts 275°
2026-04-22 19:16 52.44934 9.86775 2326 ft 151 kts 269°
2026-04-22 19:16 52.44868 9.85031 2034 ft 156 kts 263°
2026-04-22 19:16 52.44732 9.83250 1835 ft 153 kts 267°
2026-04-22 19:16 52.44911 9.81549 1615 ft 153 kts 284°
2026-04-22 19:17 52.45101 9.79802 1263 ft 161 kts 273°
2026-04-22 19:17 52.45171 9.78072 1097 ft 145 kts 275°
2026-04-22 19:17 52.45247 9.76483 926 ft 131 kts 271°
2026-04-22 19:17 52.45266 9.75040 738 ft 124 kts 266°
2026-04-22 19:18 52.45311 9.73763 593 ft 105 kts 272°
2026-04-22 19:18 52.45347 9.72527 439 ft 106 kts 271°
2026-04-22 19:18 52.45386 9.71438 279 ft 89 kts 271°
2026-04-22 19:18 52.45419 9.70521 192 ft 70 kts 272°
2026-04-22 19:19 52.45440 9.69838 183 ft 54 kts 272°
2026-04-22 19:19 52.45448 9.69461 183 ft 0 kts 91°